Location: Nairn
(57.5833°N, 3.8667°W)
Time: 18:55:20
(UTC+00:00)

Resurs 1-4 Rocket - Pass Details

Date: 07 August 2020
Orbit: 799 x 815 km, 98.6° (Epoch: 24 September)

Event Time Altitude Azimuth Distance (km) Brightness Sun altitude
Rises 03:07:47 0° 15° (NNE) 3,343 6.6 -8.5°
Reaches altitude 10° 03:10:13 10° 9° (N) 2,405 5.6 -8.3°
Maximum altitude 03:15:15 45° 299° (WNW) 1,088 2.7 -7.8°
Drops below altitude 10° 03:20:14 10° 228° (SW) 2,382 3.9 -7.4°
Enters shadow 03:20:28 - 227° (SW) 2,468 3.9 -7.4°
